TimeCST,TemperatureF,Dew PointF,Humidity,Sea Level PressureIn,VisibilityMPH,Wind Direction,Wind SpeedMPH,Gust SpeedMPH,PrecipitationIn,Events,Conditions,WindDirDegrees,DateUTC
12:54 AM,34.0,23.0,64,29.97,10.0,ENE,8.1,-,N/A,,Mostly Cloudy,70,2013-02-25 06:54:00
1:54 AM,33.1,21.9,64,29.99,10.0,ENE,6.9,-,N/A,,Partly Cloudy,60,2013-02-25 07:54:00
2:54 AM,30.9,21.9,69,30.00,10.0,ENE,5.8,-,N/A,,Partly Cloudy,70,2013-02-25 08:54:00
3:54 AM,32.0,23.0,69,29.97,10.0,ENE,9.2,-,N/A,,Clear,70,2013-02-25 09:54:00
4:54 AM,30.9,23.0,72,29.96,10.0,East,9.2,-,N/A,,Clear,90,2013-02-25 10:54:00
5:54 AM,30.9,23.0,72,29.98,10.0,NE,5.8,-,N/A,,Partly Cloudy,50,2013-02-25 11:54:00
6:54 AM,30.9,23.0,72,29.98,9.0,NE,6.9,-,N/A,,Clear,40,2013-02-25 12:54:00
7:54 AM,32.0,24.1,73,29.99,7.0,NNE,5.8,-,N/A,,Clear,30,2013-02-25 13:54:00
8:54 AM,33.1,24.1,70,29.97,7.0,NE,6.9,-,N/A,,Clear,40,2013-02-25 14:54:00
9:54 AM,34.0,25.0,70,29.97,7.0,NE,11.5,-,N/A,,Clear,50,2013-02-25 15:54:00
10:54 AM,35.1,25.0,67,29.96,7.0,NNE,6.9,-,N/A,,Mostly Cloudy,30,2013-02-25 16:54:00
11:54 AM,37.0,26.1,65,29.95,8.0,NNE,9.2,-,N/A,,Clear,30,2013-02-25 17:54:00
12:54 PM,37.0,26.1,65,29.92,9.0,NNE,10.4,-,N/A,,Mostly Cloudy,30,2013-02-25 18:54:00
1:54 PM,37.9,26.1,62,29.88,10.0,NNE,11.5,-,N/A,,Overcast,30,2013-02-25 19:54:00
2:54 PM,39.0,26.1,60,29.88,10.0,NNE,8.1,-,N/A,,Overcast,30,2013-02-25 20:54:00
3:54 PM,39.0,26.1,60,29.88,10.0,NE,10.4,-,N/A,,Overcast,40,2013-02-25 21:54:00
4:11 PM,37.4,26.6,65,29.86,5.0,NNE,13.8,27.6,0.00,Snow,Light Snow,30,2013-02-25 22:11:00
4:54 PM,36.0,28.9,76,29.84,3.0,NE,16.1,24.2,0.00,Snow,Light Snow,40,2013-02-25 22:54:00
4:58 PM,35.6,28.4,75,29.83,1.8,NE,18.4,28.8,0.00,Snow,Light Snow,40,2013-02-25 22:58:00
5:12 PM,35.6,30.2,81,29.83,1.0,NE,13.8,-,0.01,Snow,Light Snow,40,2013-02-25 23:12:00
5:19 PM,33.8,30.2,87,29.82,0.8,NNE,13.8,-,0.01,Snow,Light Snow,30,2013-02-25 23:19:00
5:27 PM,33.8,30.2,87,29.82,0.5,NNE,12.7,-,0.02,Fog-Snow,Snow,30,2013-02-25 23:27:00
5:33 PM,33.8,30.2,87,29.82,0.8,NNE,13.8,-,0.02,Snow,Light Snow,20,2013-02-25 23:33:00
5:39 PM,33.8,30.2,87,29.81,1.0,NNE,15.0,-,0.02,Snow,Light Snow,20,2013-02-25 23:39:00
5:52 PM,33.8,30.2,87,29.80,3.0,NNE,19.6,-,0.02,,Overcast,20,2013-02-25 23:52:00
5:53 PM,34.0,30.9,89,29.82,3.0,NNE,18.4,-,0.02,,Overcast,20,2013-02-25 23:53:00
6:09 PM,35.6,30.2,81,29.77,5.0,NNE,18.4,27.6,0.00,,Overcast,20,2013-02-26 00:09:00
6:54 PM,36.0,30.9,82,29.75,8.0,NNE,21.9,29.9,0.00,,Overcast,20,2013-02-26 00:54:00
7:54 PM,37.4,30.2,75,29.73,10.0,NE,18.4,-,N/A,,Overcast,50,2013-02-26 01:54:00
8:54 PM,37.0,28.9,73,29.78,6.0,NE,15.0,-,0.01,Snow,Light Snow,40,2013-02-26 02:54:00
9:23 PM,37.4,28.4,70,29.75,7.0,NE,12.7,-,0.00,Thunderstorm,Thunderstorm,40,2013-02-26 03:23:00
9:39 PM,37.4,30.2,75,29.77,4.0,ENE,15.0,24.2,0.01,Snow,Light Snow,60,2013-02-26 03:39:00
9:54 PM,36.0,30.9,82,29.77,3.0,NE,19.6,26.5,0.02,Snow,Light Snow,50,2013-02-26 03:54:00
10:23 PM,35.6,30.2,81,29.75,2.5,NE,15.0,-,0.02,Snow,Light Snow,40,2013-02-26 04:23:00
10:36 PM,33.8,30.2,87,29.73,1.8,NE,16.1,-,0.02,Snow,Light Snow,40,2013-02-26 04:36:00
10:43 PM,33.8,30.2,87,29.73,1.5,NE,13.8,-,0.03,Snow,Light Snow,40,2013-02-26 04:43:00
10:54 PM,34.0,30.9,89,29.74,1.2,NE,13.8,-,0.03,Snow,Light Snow,40,2013-02-26 04:54:00
11:04 PM,33.8,30.2,87,29.71,1.2,NE,15.0,-,0.01,Snow,Light Snow,40,2013-02-26 05:04:00
11:36 PM,33.8,30.2,87,29.69,2.0,NNE,19.6,-,0.01,Snow,Light Snow,30,2013-02-26 05:36:00
11:54 PM,34.0,30.9,89,29.69,3.0,NNE,17.3,26.5,0.01,Snow,Light Snow,20,2013-02-26 05:54:00